User: anonymous   Login
Location: Unspecified
(0.0000°N, 0.0000°E)
Time: 15:02:10
(UTC+02:00)
Language:

CZ-4B DEB - Orbit

View from above orbital plane
View from above orbital plane
View from above satellite
View from above satellite

Ground track
Ground track

The orbit data is extracted from the following two-line orbital elements,

1 33411U 08053D   16211.66263318  .00016538  00000-0  36174-3 0  9991
2 33411  97.4492 243.2067 0006608  64.7318 295.4614 15.44205663426326
Epoch (UTC): 29 July 2016 15:54:11
Eccentricity: 0.0006608
inclination: 97.4492°
perigee height: 429 km
apogee height: 438 km
right ascension of ascending node: 243.2067°
argument of perigee: 64.7318°
revolutions per day: 15.44205663
mean anomaly at epoch: 295.4614°
orbit number at epoch: 42632

The dashed part of the orbit path shows where the satellite is in the earth's shadow,  

DLR